Doha, Qatar

3:34 AM AST on December 11, 2016 (GMT +0300)
Doha

Weather History for OTBD - April, 2012

Change the Weather History Date:

Saturday, April 28, 2012

  Actual Average Record
Temperature  
Mean Temperature 91 °F -  
Max Temperature 103 °F 100 °F 105 °F (2002)
Min Temperature 79 °F 76 °F 50 °F (2002)
Cooling Degree Days 26    
Growing Degree Days 41 (Base 50)    
Moisture  
Dew Point 53 °F    
Average Humidity 31    
Maximum Humidity 54    
Minimum Humidity 7    
Precipitation  
Precipitation 0.00 in 0.01 in - ()
Sea Level Pressure  
Sea Level Pressure 29.81 in    
Wind  
Wind Speed 4 mph ()    
Max Wind Speed 9 mph    
Max Gust Speed -    
Visibility 7.1 miles    
Events      
Averages and records for this station are not official NWS values.
T = Trace of Precipitation, MM = Missing Value Source: Averaged Metar Reports

Daily Weather History Graph

Daily Weather History Graph

Search for Another Location

Airport or City:

Trip Planner

Search our weather history database for the weather conditions in past years. The results will help you decide how hot, cold, wet, or windy it might be!

Date:

Astronomy

Apr. 28, 2012 Rise Set
Actual Time 4:59 AM AST 6:02 PM AST
Civil Twilight 4:35 AM AST 6:26 PM AST
Nautical Twilight 4:07 AM AST 6:55 PM AST
Astronomical Twilight 3:38 AM AST 7:24 PM AST
Moon 10:20 AM AST (4/28) 11:48 PM AST (4/28)
Length of Visible Light 13h 50m
Length of Day
13h 02m
Waxing Crescent, 40% of the Moon is Illuminated
Apr 28
Waxing Crescent
Apr 29
First Quarter
May 6
Full
May 13
Last Quarter
May 21
New

Hourly Weather History & Observations

Time (AST) Temp. Heat Index Dew Point Humidity Pressure Visibility Wind Dir Wind Speed Gust Speed Precip Events Conditions
12:00 AM 82.4 °F 82.5 °F 59.0 °F 45% 29.83 in - North 5.8 mph - N/A   Clear
12:30 AM 82.4 °F 82.9 °F 60.8 °F 48% 29.80 in - North 4.6 mph - N/A   Clear
1:00 AM 82.4 °F 82.5 °F 59.0 °F 45% 29.80 in - NNE 4.6 mph - N/A   Clear
1:30 AM 82.4 °F 82.5 °F 59.0 °F 45% 29.80 in - Variable 2.3 mph - N/A   Clear
2:00 AM 82.4 °F 82.5 °F 59.0 °F 45% 29.80 in - North 6.9 mph - N/A   Clear
2:30 AM 82.4 °F 82.5 °F 59.0 °F 45% 29.80 in - NNE 4.6 mph - N/A   Clear
3:00 AM 81 °F - 60 °F 39% 29.81 in 9 mi 2.3 mph - -   Mostly Cloudy
3:00 AM 80.6 °F 81.5 °F 60.8 °F 51% 29.80 in - Variable 2.3 mph - N/A   Clear
3:30 AM 82.4 °F 82.9 °F 60.8 °F 48% 29.80 in - East 3.5 mph - N/A   Clear
4:00 AM 80.6 °F 81.5 °F 60.8 °F 51% 29.80 in - NE 3.5 mph - N/A   Clear
4:30 AM 80.6 °F 81.5 °F 60.8 °F 51% 29.80 in - Variable 2.3 mph - N/A   Clear
5:00 AM 80.6 °F 81.8 °F 62.6 °F 54% 29.80 in - Variable 2.3 mph - N/A   Clear
5:30 AM 80.6 °F 81.8 °F 62.6 °F 54% 29.80 in - Variable 2.3 mph - N/A   Clear
6:00 AM 80.6 °F 81.8 °F 62.6 °F 54% 29.83 in - NNE 3.5 mph - N/A   Clear
6:30 AM 82.4 °F 83.4 °F 62.6 °F 51% 29.83 in - NNE 3.5 mph - N/A   Clear
7:00 AM 82.4 °F 83.9 °F 64.4 °F 54% 29.83 in - Variable 2.3 mph - N/A   Clear
7:30 AM 86.0 °F 84.9 °F 57.2 °F 37% 29.83 in - NE 4.6 mph - N/A   Clear
8:00 AM 89.6 °F 87.7 °F 55.4 °F 31% 29.86 in - NE 4.6 mph - N/A   Clear
8:30 AM 91.4 °F - 44.6 °F 20% 29.83 in - ENE 6.9 mph - N/A   Clear
9:00 AM 93 °F - 42 °F 9% 29.87 in 10 mi ENE 4.6 mph - -   Scattered Clouds
9:00 AM 93.2 °F - 42.8 °F 17% 29.86 in - ENE 4.6 mph - N/A   Clear
9:30 AM 91.4 °F - 48.2 °F 23% 29.86 in - ESE 6.9 mph - N/A   Clear
10:00 AM 93.2 °F - 46.4 °F 20% 29.86 in - East 5.8 mph - N/A   Clear
10:30 AM 96.8 °F - 44.6 °F 17% 29.86 in - SE 4.6 mph - N/A   Clear
11:00 AM 98.6 °F - 42.8 °F 15% 29.86 in - SE 5.8 mph - N/A   Clear
11:30 AM 98.6 °F - 46.4 °F 17% 29.86 in - ESE 5.8 mph - N/A   Clear
12:00 PM 98.6 °F - 46.4 °F 17% 29.83 in - East 8.1 mph - N/A   Clear
12:30 PM 98.6 °F - 44.6 °F 16% 29.83 in - East 4.6 mph - N/A   Clear
1:00 PM 100.4 °F - 46.4 °F 16% 29.83 in - Variable 1.2 mph - N/A   Clear
1:30 PM 104.0 °F - 41.0 °F 12% 29.83 in - ENE 4.6 mph - N/A   Clear
2:00 PM 104.0 °F - 41.0 °F 12% 29.83 in - SSE 4.6 mph - N/A   Clear
2:30 PM 102.2 °F - 39.2 °F 11% 29.80 in - East 9.2 mph - N/A   Clear
3:00 PM 100 °F - 42 °F 7% 29.81 in 9 mi East 9.2 mph - -   Scattered Clouds
3:00 PM 100.4 °F - 42.8 °F 14% 29.80 in - East 9.2 mph - N/A   Clear
3:30 PM 100.4 °F - 42.8 °F 14% 29.80 in - East 6.9 mph - N/A   Clear
4:00 PM 98.6 °F - 50.0 °F 19% 29.80 in - East 5.8 mph - N/A   Clear
4:30 PM 96.8 °F - 50.0 °F 20% 29.80 in - East 5.8 mph - N/A   Clear
5:00 PM 95.0 °F - 51.8 °F 23% 29.80 in 5.0 mi ESE 8.1 mph - N/A   Unknown
5:30 PM 95.0 °F - 51.8 °F 23% 29.80 in 5.0 mi SSE 8.1 mph - N/A   Unknown
6:00 PM 95.0 °F - 46.4 °F 19% 29.77 in 5.0 mi SSE 9.2 mph - N/A   Unknown
6:30 PM 93.2 °F - 44.6 °F 19% 29.77 in - SE 6.9 mph - N/A   Clear
7:00 PM 91.4 °F - 51.8 °F 26% 29.77 in - ESE 6.9 mph - N/A   Clear
7:30 PM 91.4 °F 89.4 °F 55.4 °F 29% 29.80 in - Variable 2.3 mph - N/A   Clear
8:00 PM 87.8 °F 87.1 °F 59.0 °F 38% 29.80 in - NE 5.8 mph - N/A   Clear
8:30 PM 87.8 °F 86.5 °F 57.2 °F 35% 29.80 in - NNE 3.5 mph - N/A   Clear
9:00 PM 87 °F - 57 °F 26% 29.82 in 7 mi NNE 4.6 mph - -   Partly Cloudy
9:00 PM 87.8 °F 86.5 °F 57.2 °F 35% 29.80 in - NNE 4.6 mph - N/A   Clear
9:30 PM 86.0 °F 84.9 °F 57.2 °F 37% 29.80 in - NNE 3.5 mph - N/A   Clear
10:00 PM 86.0 °F 84.9 °F 57.2 °F 37% 29.80 in - NNE 3.5 mph - N/A   Clear
10:30 PM 86.0 °F 85.4 °F 59.0 °F 40% 29.80 in - Variable 2.3 mph - N/A   Clear
11:00 PM 86.0 °F 84.2 °F 53.6 °F 33% 29.77 in - Variable 2.3 mph - N/A   Clear
11:30 PM 86.0 °F 84.2 °F 53.6 °F 33% 29.77 in - North 3.5 mph - N/A   Clear